Wind_Speed
17 17 17 17 16 16 17 17 18 19 19 19 19 21 22 22 23 23 23 24 24 25 25 25 25 25 26 26 27 28 28 29 28 29 28 28 28 29 30 31 31 31 31
17 18 18 17 16 17 16 16 17 18 19 19 21 22 21 22 23 23 24 25 25 25 25 25 26 26 27 27 28 28 29 30 30 30 29 29 30 30 31 32 32 32 32
17 17 17 16 16 16 16 16 16 17 19 20 20 21 22 23 23 24 25 25 26 26 27 27 27 27 28 28 28 28 29 30 30 30 29 29 29 29 30 31 32 33 33
17 17 15 15 16 16 16 17 18 19 20 20 21 22 23 24 24 25 26 26 27 27 27 28 28 28 28 28 28 29 29 29 29 29 29 29 29 29 28 29 30 32 33
17 16 15 16 17 18 18 19 20 21 22 22 22 23 24 25 26 26 27 27 27 27 27 28 28 28 29 29 29 29 29 30 30 30 30 29 29 29 28 28 29 30 31
16 16 16 17 19 20 20 21 22 22 23 24 24 25 25 27 27 27 27 27 27 28 28 29 29 30 29 29 29 29 30 29 30 30 30 29 29 28 28 28 29 29 30
17 18 18 19 20 21 22 23 23 24 24 25 26 26 27 27 26 26 27 27 28 28 29 29 30 30 30 30 30 30 30 29 29 29 29 29 29 29 28 29 29 30 30
16 17 18 20 21 22 23 24 24 25 26 27 27 27 27 27 27 27 27 28 29 29 30 29 30 30 31 31 30 30 30 30 30 30 30 30 30 30 29 30 30 30 30
16 18 19 21 22 23 24 24 25 26 27 28 28 28 28 28 28 28 29 30 30 31 30 30 31 31 31 31 30 30 30 30 30 30 31 31 30 30 30 30 29 29 29
17 18 20 22 23 24 25 25 26 27 27 28 28 29 29 29 29 29 30 30 30 30 31 31 31 31 31 31 31 31 30 30 30 30 30 30 30 30 30 29 29 30 30
18 19 20 22 23 23 24 25 25 26 26 27 27 27 27 27 28 28 28 29 29 29 29 29 29 29 29 30 30 30 30 30 30 29 29 29 29 29 28 28 28 29 29
19 20 21 22 22 23 23 23 23 24 25 25 25 25 25 25 26 26 27 28 27 27 27 27 27 28 28 28 29 29 29 29 28 28 28 29 29 28 28 27 28 28 28
20 20 20 21 22 22 22 22 22 23 24 25 25 24 24 24 24 25 25 25 25 24 25 25 25 26 26 26 26 26 26 27 27 27 27 27 27 27 26 26 26 26 26
19 20 20 21 21 22 22 22 23 23 23 23 23 23 22 22 22 23 23 23 22 22 22 22 22 22 23 23 23 23 23 23 24 24 24 24 23 23 23 23 24 23 23
19 20 21 21 21 21 21 22 22 22 21 21 21 21 21 20 20 20 19 19 18 18 18 18 19 19 19 19 19 19 20 20 20 20 20 20 20 20 20 20 20 20 20
19 20 20 20 20 20 20 20 20 20 20 20 19 18 18 18 17 17 16 16 16 16 16 15 16 16 16 17 17 17 17 16 16 16 16 16 16 15 16 16 17 17 17
19 19 19 20 20 20 20 19 18 18 17 16 15 15 15 15 15 15 14 14 14 14 14 14 14 14 15 14 14 14 14 13 12 12 11 11 11 12 12 13 13 13 14
18 18 18 18 18 17 16 16 16 16 15 14 14 14 14 14 14 13 12 12 12 12 13 12 12 13 12 11 11 11 10 9 9 8 8 8 8 8 8 9 9 9 10
17 17 17 16 15 15 15 15 14 13 13 13 13 13 13 13 12 12 10 9 10 11 10 11 11 10 9 8 8 8 7 7 6 6 6 6 6 5 5 5 5 6 7
15 14 14 14 13 12 13 12 11 12 12 11 11 11 11 11 11 10 8 8 8 9 9 10 9 9 8 7 6 6 6 6 5 4 4 4 3 3 2 2 2 3 3
13 13 12 11 10 10 10 10 9 10 10 9 9 9 10 10 9 7 6 6 7 7 8 8 8 8 6 5 6 5 5 6 6 6 5 4 4 3 2 2 1 1 0
11 10 9 8 8 8 8 8 8 8 7 7 7 7 8 7 6 6 6 6 7 7 6 7 7 7 6 6 6 6 7 7 8 8 8 7 7 7 6 5 5 4 4
8 8 7 6 6 7 7 6 6 5 6 5 6 6 6 6 5 5 6 6 6 6 6 6 7 8 8 8 8 8 9 9 10 10 10 10 9 9 8 7 6 6 6
6 5 5 4 5 6 6 5 5 5 4 4 5 5 6 7 7 6 6 6 6 6 6 6 7 8 9 9 9 9 9 10 11 12 12 11 11 10 9 9 8 7 7
4 4 4 4 5 6 6 5 5 4 3 4 5 6 6 7 7 7 7 7 7 7 7 7 7 8 9 9 10 10 10 10 11 11 12 12 12 11 10 10 10 9 9
3 3 3 4 5 5 4 4 3 3 3 4 5 5 6 7 8 8 9 9 8 8 8 8 9 9 10 10 10 11 11 11 11 11 11 11 11 11 11 10 10 9 9
Wind_Direction
276 274 272 271 270 269 270 268 268 267 268 269 268 271 274 274 274 274 275 276 275 277 278 278 277 277 277 277 277 278 277 275 276 276 275 274 273 272 270 269 268 266 265
277 278 275 273 272 273 272 272 270 270 271 268 268 272 276 276 275 275 275 276 277 277 278 279 279 278 278 279 278 278 278 277 277 277 276 276 274 272 272 270 268 266 264
280 277 272 270 270 271 274 273 272 270 273 272 272 273 275 275 274 275 276 278 279 278 278 280 279 279 279 278 279 278 277 277 276 276 276 275 275 273 273 271 269 267 264
280 278 273 271 271 273 277 276 275 277 278 278 278 279 279 278 276 276 276 278 279 278 278 279 280 280 280 279 279 279 277 277 276 275 275 275 274 274 273 272 270 267 265
276 275 271 273 275 279 282 281 280 281 280 280 280 280 280 281 279 278 277 278 278 278 278 279 280 280 280 280 279 279 279 278 276 275 275 275 274 274 274 271 269 267 266
278 276 277 281 284 286 287 286 285 283 281 280 281 282 282 283 281 278 278 278 279 279 279 279 280 280 280 280 280 279 279 278 276 275 274 274 274 274 272 270 269 267 266
280 281 283 287 290 289 289 287 285 285 283 283 283 283 283 282 281 280 279 278 278 279 279 279 280 281 281 281 280 280 279 277 276 275 273 273 272 272 272 271 269 267 266
286 287 288 290 290 288 289 290 287 286 285 285 285 286 284 281 280 280 280 279 280 281 281 280 281 281 281 281 280 280 279 278 276 275 273 273 272 272 271 271 269 266 265
288 288 288 290 291 289 290 290 289 289 288 287 286 285 284 283 281 281 281 281 282 282 282 281 281 280 280 280 280 279 279 278 277 276 274 273 272 272 271 270 269 267 266
289 290 291 291 293 292 290 289 290 290 289 289 287 285 285 284 283 282 282 282 282 282 282 282 281 279 280 280 280 280 280 279 278 276 275 273 272 272 271 269 269 268 267
290 293 295 295 295 294 292 290 291 290 290 291 291 289 288 287 286 286 286 285 284 283 283 282 282 282 282 281 281 281 280 280 279 277 275 274 273 272 270 268 267 266 265
291 294 295 296 296 296 295 292 293 293 293 294 294 294 292 293 293 292 291 290 289 288 286 285 284 284 284 283 282 281 280 279 279 278 276 275 274 272 270 268 267 265 265
291 293 294 296 296 297 296 295 296 295 294 294 294 296 296 295 294 295 295 294 292 290 289 289 286 285 285 284 283 282 280 279 279 279 277 275 274 272 269 267 266 265 266
290 291 294 296 298 297 298 296 296 296 295 295 296 296 296 295 296 298 298 297 294 293 292 291 290 289 288 286 285 284 283 281 280 279 277 276 274 271 267 266 265 265 265
291 293 294 295 296 297 297 295 297 297 297 297 298 298 298 298 300 300 300 300 298 297 298 297 295 294 293 291 290 289 287 285 282 279 278 277 275 272 269 266 265 265 264
292 293 294 295 295 296 298 297 297 297 296 296 298 300 302 302 302 301 302 305 306 304 302 301 302 302 301 300 299 296 294 290 286 282 279 279 277 273 270 266 265 264 261
295 295 295 295 296 295 296 298 296 296 296 297 301 305 305 306 305 304 306 308 310 307 304 305 308 309 309 307 305 303 301 295 292 288 282 282 280 275 270 266 264 263 260
297 296 295 296 297 297 297 299 297 296 298 300 302 304 307 307 305 304 307 308 308 309 311 314 315 316 313 310 312 315 312 302 302 296 288 285 281 278 272 268 264 261 257
298 299 296 297 297 297 299 300 297 298 302 301 305 307 312 313 311 310 310 311 314 317 319 320 324 326 323 323 323 327 328 323 320 313 304 297 295 290 281 269 263 258 254
302 302 300 300 301 300 301 302 301 301 300 301 304 307 313 319 321 320 321 321 323 325 326 328 330 334 334 337 338 343 347 352 352 344 337 332 323 318 302 276 264 258 257
308 307 303 301 303 304 304 304 305 308 309 311 317 317 319 322 325 328 332 334 335 336 338 338 341 347 350 359 4 2 11 19 20 19 23 29 34 44 58 80 101 127 119
310 313 311 310 311 313 311 313 311 318 325 329 330 331 333 333 338 348 352 353 351 348 355 4 10 18 26 30 33 38 39 40 45 47 48 57 66 72 76 85 88 86 91
310 313 322 328 331 328 324 325 322 325 335 344 349 349 355 2 6 7 10 12 15 20 24 32 35 38 43 44 50 52 55 58 60 58 58 66 72 75 73 77 83 84 82
314 322 331 337 347 354 357 0 356 354 355 6 13 15 18 22 27 28 27 28 36 43 49 53 52 51 54 57 61 65 68 65 63 64 66 67 67 68 67 69 76 82 82
343 349 346 347 353 360 7 16 26 33 36 37 32 33 37 43 43 42 44 49 54 58 63 62 58 60 63 67 71 74 70 67 67 67 68 68 67 66 69 69 71 72 71
14 10 8 5 6 9 18 23 34 59 63 45 44 52 57 54 52 49 52 58 64 68 67 66 67 69 72 75 73 73 73 72 70 69 68 67 67 68 69 69 70 71 69
Height
5859 5858 5858 5857 5857 5856 5856 5855 5854 5854 5853 5852 5852 5852 5851 5850 5850 5849 5848 5848 5847 5846 5845 5844 5843 5842 5841 5840 5840 5838 5837 5836 5836 5835 5834 5834 5833 5832 5832 5832 5832 5832 5832
5855 5854 5853 5853 5853 5852 5851 5851 5849 5849 5848 5848 5847 5847 5846 5845 5844 5843 5842 5842 5841 5840 5839 5838 5837 5836 5835 5834 5833 5832 5830 5830 5829 5828 5827 5827 5826 5825 5824 5824 5824 5824 5824
5851 5850 5849 5848 5848 5848 5847 5846 5845 5845 5844 5843 5842 5842 5841 5840 5839 5837 5836 5835 5834 5833 5832 5831 5829 5829 5828 5827 5826 5825 5824 5822 5821 5820 5820 5819 5818 5818 5817 5816 5816 5816 5816
5848 5846 5846 5845 5845 5844 5843 5842 5841 5840 5840 5838 5837 5836 5835 5833 5832 5831 5829 5828 5827 5826 5825 5823 5822 5821 5820 5819 5818 5817 5816 5814 5813 5812 5811 5811 5810 5810 5810 5809 5808 5808 5808
5845 5843 5843 5842 5841 5840 5839 5838 5837 5836 5834 5833 5831 5830 5829 5827 5825 5824 5822 5821 5820 5819 5817 5816 5815 5814 5813 5812 5811 5810 5808 5807 5806 5805 5804 5803 5802 5802 5802 5801 5801 5800 5800
5841 5840 5839 5838 5837 5835 5834 5833 5832 5830 5829 5827 5826 5824 5822 5820 5818 5817 5815 5814 5813 5811 5810 5809 5808 5807 5805 5804 5803 5802 5800 5799 5798 5797 5796 5796 5795 5794 5794 5794 5793 5793 5793
5837 5836 5835 5834 5832 5831 5829 5828 5826 5824 5822 5821 5819 5817 5815 5813 5811 5810 5808 5807 5806 5804 5803 5801 5800 5799 5797 5796 5795 5794 5792 5791 5790 5789 5789 5788 5787 5787 5786 5786 5786 5785 5785
5833 5832 5831 5829 5827 5826 5824 5822 5820 5818 5816 5814 5811 5809 5808 5806 5805 5803 5801 5800 5798 5796 5794 5793 5792 5790 5789 5788 5787 5785 5784 5783 5782 5781 5781 5780 5779 5779 5779 5778 5778 5778 5778
5829 5827 5826 5824 5822 5820 5818 5816 5814 5811 5809 5806 5804 5802 5800 5799 5797 5795 5793 5792 5790 5788 5786 5785 5784 5782 5781 5780 5778 5777 5776 5775 5774 5773 5772 5772 5771 5771 5771 5770 5770 5771 5771
5824 5822 5821 5818 5816 5814 5812 5809 5807 5805 5802 5799 5797 5794 5793 5791 5789 5787 5785 5783 5782 5780 5778 5776 5775 5774 5773 5771 5770 5769 5768 5767 5765 5764 5764 5763 5763 5762 5762 5762 5762 5763 5763
5819 5817 5815 5813 5810 5808 5805 5803 5800 5798 5795 5792 5789 5787 5785 5783 5781 5779 5777 5775 5773 5771 5770 5768 5767 5766 5765 5763 5762 5761 5759 5758 5757 5756 5756 5755 5755 5754 5754 5754 5754 5755 5755
5814 5812 5810 5807 5805 5802 5799 5796 5794 5791 5788 5785 5783 5780 5778 5776 5774 5771 5769 5767 5765 5763 5762 5761 5759 5758 5757 5755 5754 5752 5751 5750 5749 5748 5748 5747 5746 5746 5746 5746 5746 5747 5747
5809 5807 5804 5802 5799 5797 5794 5791 5788 5785 5782 5780 5777 5775 5772 5770 5767 5765 5763 5760 5758 5757 5755 5754 5752 5751 5749 5747 5746 5745 5743 5742 5741 5740 5739 5739 5738 5738 5738 5738 5739 5740 5740
5804 5801 5799 5796 5794 5791 5789 5786 5783 5780 5777 5774 5772 5769 5767 5764 5762 5759 5757 5755 5753 5751 5749 5747 5745 5744 5742 5741 5739 5738 5736 5735 5734 5733 5732 5731 5731 5731 5731 5731 5732 5732 5733
5798 5796 5793 5791 5788 5786 5783 5781 5778 5775 5772 5769 5767 5764 5761 5759 5757 5754 5752 5750 5748 5746 5744 5742 5740 5738 5736 5735 5733 5732 5730 5729 5728 5727 5726 5725 5725 5724 5725 5725 5725 5726 5727
5793 5790 5788 5785 5783 5781 5778 5775 5773 5770 5767 5765 5762 5759 5757 5754 5752 5750 5748 5746 5744 5742 5740 5738 5736 5734 5732 5730 5729 5727 5725 5724 5722 5721 5720 5720 5719 5719 5719 5719 5720 5720 5721
5787 5785 5782 5780 5777 5775 5773 5770 5767 5765 5763 5760 5758 5755 5753 5751 5749 5747 5745 5743 5741 5739 5737 5735 5733 5731 5729 5727 5725 5723 5721 5719 5718 5717 5716 5715 5715 5714 5714 5714 5715 5715 5716
5782 5779 5777 5775 5772 5770 5768 5765 5763 5761 5759 5757 5754 5752 5750 5748 5746 5744 5742 5740 5739 5737 5735 5733 5730 5728 5726 5724 5722 5720 5718 5716 5715 5714 5713 5712 5712 5711 5711 5711 5711 5712 5713
5777 5774 5772 5770 5768 5765 5763 5761 5759 5757 5756 5754 5752 5750 5748 5745 5743 5741 5740 5738 5736 5734 5733 5731 5728 5726 5724 5722 5720 5718 5717 5715 5713 5712 5711 5710 5710 5709 5709 5709 5709 5710 5710
5773 5770 5768 5765 5763 5761 5759 5757 5756 5754 5752 5751 5749 5747 5745 5743 5742 5740 5738 5736 5735 5733 5731 5729 5727 5725 5723 5721 5719 5718 5716 5714 5713 5712 5710 5709 5709 5708 5708 5708 5708 5708 5708
5769 5766 5764 5762 5760 5758 5756 5755 5753 5751 5750 5748 5747 5745 5744 5742 5740 5739 5737 5736 5734 5732 5730 5728 5726 5724 5722 5721 5719 5717 5716 5714 5713 5711 5710 5709 5708 5708 5708 5708 5708 5708 5708
5765 5763 5761 5759 5758 5756 5754 5752 5751 5749 5748 5747 5746 5744 5743 5741 5740 5738 5737 5735 5733 5732 5730 5729 5727 5725 5723 5722 5720 5718 5717 5716 5714 5713 5712 5710 5710 5709 5709 5709 5709 5709 5709
5762 5761 5759 5757 5756 5754 5752 5751 5750 5748 5747 5746 5745 5744 5743 5741 5740 5739 5737 5735 5734 5732 5731 5729 5728 5726 5724 5723 5722 5720 5719 5718 5716 5715 5714 5713 5712 5712 5711 5711 5710 5710 5710
5760 5759 5758 5757 5755 5753 5752 5750 5749 5748 5747 5746 5745 5744 5743 5742 5740 5739 5737 5736 5734 5733 5732 5731 5730 5728 5727 5725 5724 5723 5722 5721 5719 5718 5717 5716 5715 5715 5714 5713 5713 5712 5712
5759 5758 5757 5756 5755 5754 5752 5751 5750 5749 5748 5747 5746 5745 5744 5743 5742 5740 5738 5737 5736 5735 5734 5733 5732 5730 5729 5728 5727 5726 5725 5724 5723 5722 5721 5720 5719 5717 5716 5716 5715 5715 5714
5758 5758 5757 5756 5755 5753 5752 5751 5750 5749 5748 5748 5747 5746 5745 5744 5743 5742 5740 5739 5738 5737 5736 5735 5734 5733 5732 5731 5730 5729 5728 5727 5726 5725 5724 5723 5722 5721 5720 5719 5718 5717 5716